Regional Weather Roundup
Issued by NWS Jackson, KY

Home | Current Version | Previous Version | Text Only | Print | Product List | Glossary On
Versions: 1 2 3 4 5 6 7 8 9 10 11 12 13 14 15 16 17 18 19 20 21 22 23 24 25 26 27
000
ASUS43 KJKL 200610
RWRJKL

EAST KENTUCKY HOURLY WEATHER ROUNDUP
NATIONAL WEATHER SERVICE JACKSON KY
100 AM EST MON FEB 20 2017

NOTE: "FAIR" INDICATES FEW OR NO CLOUDS BELOW 12,000 FEET WITH
NO SIGNIFICANT WEATHER AND/OR OBSTRUCTIONS TO VISIBILITY.

* THESE REPORTS ARE NOT UNDER NWS QUALITY CONTROL AND MAY NOT
  REPORT WEATHER SUCH AS PRECIPITATION AND FOG.

KYZ079-080-083-085-087-088-110-112-115-119-120-200700
...EASTERN KENTUCKY...

CITY           SKY/WX    TMP DP  RH WIND       PRES   REMARKS
JACKSON        CLEAR     49  44  83 E3        30.18R
6HR MIN TEMP:  48; 6HR MAX TEMP:  58;

LONDON         CLEAR     41  38  89 CALM      30.18R
6HR MIN TEMP:  41; 6HR MAX TEMP:  57;

SOMERSET*      CLEAR     41  41 100 CALM      30.18S FOG
MONTICELLO*    CLEAR     37  36  96 CALM      30.19R FOG
6HR MIN TEMP:  36; 6HR MAX TEMP:  52;

WILLIAMSBURG*  CLEAR     45  45 100 CALM      30.18S
MIDDLESBORO*   CLEAR     38  38 100 CALM      30.21R
6HR MIN TEMP:  38; 6HR MAX TEMP:  53;

HARLAN APT*    CLEAR     41  39  93 CALM      30.20R
PIKE CO APT*     N/A     46  46  98 CALM      30.18R
BIG SANDY APT* CLEAR     45  45 100 CALM      30.19R
6HR MIN TEMP:  45; 6HR MAX TEMP:  55;

MOREHEAD APT*  FOG       45  43  93 CALM      30.21R VSB 3/4
ASHLAND*       CLOUDY    37  36  93 CALM      30.19R VSB 1/4
$$

KYZ035-036-041-042-044-050-067-078-099-200700
...CENTRAL KENTUCKY...

CITY           SKY/WX    TMP DP  RH WIND       PRES   REMARKS
MT STERLING*   FOG       37  37 100 SE3       30.20R VSB 1/4
FLEMING/MASON* FOG       36  36 100 CALM      30.20R VSB<1/4
DANVILLE*      CLOUDY    37  37 100 CALM      30.18S
LEXINGTON      PTCLDY    42  40  92 E3        30.18R FOG
6HR MIN TEMP:  39; 6HR MAX TEMP:  50;

FRANKFORT      FOG       37  35  92 N3        30.17R VSB 1/4
6HR MIN TEMP:  37; 6HR MAX TEMP:  50;

LOUISVILLE     PTCLDY    43  41  93 CALM      30.17R FOG
6HR MIN TEMP:  42; 6HR MAX TEMP:  53;

LEBANON*         N/A     48  48 100 CALM      30.17R FOG
GLASGOW*       PTCLDY   N/A N/A N/A CALM      30.16S FOG
BOWLING GREEN  FOG       43  41  93 CALM      30.15F VSB 1/4
6HR MIN TEMP:  42; 6HR MAX TEMP:  56;

$$

KYZ091>093-OHZ055-061-077-WVZ005-015-034-035-042-200700
...SOUTHERN OHIO/WEST VIRGINIA...

CITY           SKY/WX    TMP DP  RH WIND       PRES   REMARKS
COVINGTON      PTCLDY    40  39  97 CALM      30.17R FOG
COLUMBUS       PTCLDY    42  39  89 SE3       30.19R FOG
DAYTON         CLOUDY    40  40 100 CALM      30.19R FOG
WILMINGTON     FOG       39  39 100 CALM      30.18R VSB 1/4
HUNTINGTON     FOG       39  38  96 E3        30.18R VSB 1
CHARLESTON     CLOUDY    39  38  96 CALM      30.18R FOG
PINEVILLE*       N/A     35  32  90 MISG      30.23S
BECKLEY        FOG       36  35  96 CALM      30.17R VSB 1/4
BLUEFIELD      CLEAR     43  40  89 W6        30.18R
LOGAN CO APT*  FOG       45  45 100 CALM      30.17R VSB 1/4
$$

VAZ002-007-008-TNZ017-027-036-066-071-200700
...SOUTHWEST VIRGINIA/EAST TENNESSEE...

CITY           SKY/WX    TMP DP  RH WIND       PRES   REMARKS
WISE*          CLEAR     45  45 100 CALM      30.21R
JONESVILLE*      N/A     37  37 100 CALM      30.22R
ABINGDON*      CLEAR     41  40  96 CALM      30.19R FOG
BRISTOL        CLEAR     38  37  97 CALM      30.20R FOG
MORRISTOWN*    CLEAR     46  43  87 CALM      30.18R
SEVIERVILLE*   CLEAR     39  39 100 CALM      30.18R
KNOXVILLE      PTCLDY    46  42  86 NE3       30.17R
LAFOLLETTE*    CLEAR     39  39 100 CALM      30.21S FOG
OAK RIDGE      CLEAR     43  41  93 CALM      30.19R
CROSSVILLE     CLEAR     43  42  97 CALM      30.18S
NASHVILLE      PTCLDY    52  47  83 NE5       30.14F
$$

...KEY TO REMARKS...
VSB - VISIBILITY IN MILES
WCI - WIND CHILL INDEX
HX  - HEAT INDEX

$$




USA.gov is the U.S. government's official web portal to all federal, state and local government web resources and services.